Weather History for Guthrie, OK

Change the Weather History Date:

Saturday, December 1, 2012

  Actual Average Record
Temperature  
Mean Temperature 66 °F -  
Max Temperature 77 °F 54 °F 85 °F (1948)
Min Temperature 50 °F 32 °F 6 °F (2006)
Growing Degree Days 16 (Base 50)    
Moisture  
Dew Point 51 °F    
Average Humidity 64    
Maximum Humidity 84    
Minimum Humidity 40    
Precipitation  
Precipitation 0.00 in - - ()
Sea Level Pressure  
Sea Level Pressure 29.86 in    
Wind  
Wind Speed 16 mph (SSW)    
Max Wind Speed 24 mph    
Max Gust Speed 34 mph    
Visibility 9 miles    
Events      
Averages and records for this station are not official NWS values.
T = Trace of Precipitation, MM = Missing Value Source: NWS Daily Summary

Daily Weather History Graph

Daily Weather History Graph

Search for Another Location

Airport:

Trip Planner

Search our weather history database for the weather conditions in past years. The results will help you decide how hot, cold, wet, or windy it might be!

Date:

Astronomy

Dec. 01, 2012 Rise Set
Actual Time 7:21 AM CST 5:15 PM CST
Civil Twilight 6:53 AM CST 5:43 PM CST
Nautical Twilight 6:22 AM CST 6:15 PM CST
Astronomical Twilight 5:51 AM CST 6:46 PM CST
Moon 8:05 PM CST (12/1) 9:36 AM CST (12/1)
Length of Visible Light 10h 50m
Length of Day
9h 54m
Waning Gibbous, 91% of the Moon is Illuminated
Dec 1
Waning Gibbous
Dec 6
Last Quarter
Dec 13
New
Dec 19
First Quarter
Dec 28
Full

Hourly Weather History & Observations

Time (CST) Temp. Dew Point Humidity Pressure Visibility Wind Dir Wind Speed Gust Speed Precip Events Conditions
2:53 AM 63.0 °F 57.0 °F 81% 29.88 in 7.0 mi South 20.7 mph 29.9 mph N/A   Clear
3:53 AM 62.1 °F 57.0 °F 84% 29.86 in 7.0 mi South 18.4 mph 29.9 mph N/A   Clear
4:53 AM 62.1 °F 55.9 °F 80% 29.85 in 7.0 mi South 20.7 mph 26.5 mph N/A   Clear
5:53 AM 62.1 °F 55.9 °F 80% 29.84 in 8.0 mi South 19.6 mph 27.6 mph N/A   Clear
6:53 AM 61.0 °F 55.9 °F 83% 29.84 in 8.0 mi South 21.9 mph 28.8 mph N/A   Clear
7:53 AM 62.1 °F 55.9 °F 80% 29.85 in 7.0 mi South 19.6 mph 31.1 mph N/A   Partly Cloudy
8:53 AM 64.0 °F 57.0 °F 78% 29.83 in 7.0 mi South 24.2 mph 34.5 mph N/A   Partly Cloudy
9:53 AM 66.0 °F 55.9 °F 70% 29.85 in 8.0 mi SSW 17.3 mph 33.4 mph N/A   Clear
10:53 AM 69.1 °F 55.9 °F 63% 29.85 in 9.0 mi South 23.0 mph 32.2 mph N/A   Clear
1:53 PM 77.0 °F 51.1 °F 40% 29.79 in 10.0 mi SSW 23.0 mph 29.9 mph N/A   Clear
3:53 PM 77.0 °F 51.1 °F 40% 29.80 in 10.0 mi SW 11.5 mph 20.7 mph N/A   Clear
4:53 PM 75.9 °F 51.1 °F 42% 29.81 in 10.0 mi SSW 12.7 mph - N/A   Clear
5:53 PM 71.1 °F 51.1 °F 49% 29.83 in 10.0 mi SSE 4.6 mph - N/A   Clear
6:53 PM 66.9 °F 50.0 °F 54% 29.85 in 10.0 mi South 3.5 mph - N/A   Clear
7:53 PM 63.0 °F 50.0 °F 63% 29.88 in 10.0 mi NW 5.8 mph - N/A   Clear
8:53 PM 59.0 °F 41.0 °F 51% 29.90 in 10.0 mi NNE 5.8 mph - N/A   Clear
9:53 PM 55.9 °F 37.9 °F 51% 29.91 in 10.0 mi North 4.6 mph - N/A   Clear
10:53 PM 54.0 °F 39.0 °F 57% 29.93 in 10.0 mi Calm Calm - N/A   Clear
11:53 PM 50.0 °F 37.9 °F 63% 29.94 in 10.0 mi Calm Calm - N/A   Clear